Home > Weather > Kranj > Past weeks

Flag for Slovenia Past Weather in Kranj, Slovenia — Yesterday and Last 2 Weeks

Now
61 °F

Passing clouds.


Feels Like: 61 °F
Forecast: 50 / 79 °F
Wind: 5 mph from Northwest

Location: Ljubljana Airport / Brnik

Current Time: Aug 26, 2016 at 12:15:22 AM

Latest Report: Aug 25, 2016 at 11:30 PM


Visibility: N/A

Pressure: 30.21 "Hg

Humidity: 88%

Dew Point: 57 °F

Location of KranjLocation

Past Weather in Kranj — Graph

°F

Kranj Temperature Yesterday

Maximum temperature yesterday: 79 °F (at 1:30 PM)
Minimum temperature yesterday: 52 °F (at 6:30 AM)
Average temperature yesterday: 67 °F

High & Low Weather Summary for the Past Weeks

 TemperatureHumidityPressure
High84 °F (Aug 15, 3:00 PM)100% (Aug 10, 11:00 PM)30.33 "Hg (Aug 10, 11:00 PM)
Low43 °F (Aug 12, 5:30 AM)33% (Aug 22, 3:30 PM)29.83 "Hg (Aug 17, 5:00 AM)
Average65 °F77%30.12 "Hg
* Reported Aug 10 10:00 PM — Aug 25 10:30 PM, Kranj, Weather by CustomWeather, © 2016

Note: Actual official high and low records may vary slightly from our data, if they occured in-between our weather recording intervals... More about our weather records

Advertising

Kranj Weather History for the Previous 24 Hours

Scroll right to see more
 ConditionsComfort  
Time TempWeatherWind HumidityBarometerVisibility
10:30 PM
Thu, Aug 25
61 °FPassing clouds.1 mph88%30.21 "HgN/A
10:00 PM64 °FClear.No wind78%30.21 "Hg10 mi
9:30 PM64 °FPassing clouds.2 mph83%30.18 "HgN/A
9:00 PM66 °FPassing clouds.5 mph73%30.18 "HgN/A
8:30 PM68 °FPassing clouds.2 mph69%30.18 "HgN/A
8:00 PM70 °FPassing clouds.5 mph69%30.15 "HgN/A
7:30 PM72 °FPassing clouds.5 mph65%30.15 "HgN/A
7:00 PM73 °FPassing clouds.6 mph61%30.15 "HgN/A
6:30 PM75 °FPassing clouds.8 mph54%30.15 "HgN/A
6:00 PM77 °FPassing clouds.10 mph51%30.15 "HgN/A
5:30 PM77 °FPassing clouds.10 mph51%30.15 "HgN/A
5:00 PM79 °FPassing clouds.12 mph48%30.15 "HgN/A
4:30 PM79 °FPassing clouds.9 mph48%30.15 "HgN/A
4:00 PM79 °FPassing clouds.9 mph48%30.15 "HgN/A
3:30 PM79 °FPassing clouds.12 mph45%30.15 "HgN/A
3:00 PM79 °FPassing clouds.12 mph48%30.18 "HgN/A
2:30 PM77 °FPassing clouds.13 mph44%30.18 "HgN/A
2:00 PM77 °FPassing clouds.13 mph44%30.18 "HgN/A
1:30 PM79 °FPassing clouds.10 mph45%30.18 "HgN/A
1:00 PM77 °FPassing clouds.10 mph51%30.18 "HgN/A
12:30 PM77 °FPassing clouds.8 mph51%30.18 "HgN/A
12:00 PM77 °FPassing clouds.8 mph51%30.21 "HgN/A
11:30 AM75 °FPassing clouds.7 mph54%30.21 "HgN/A
11:00 AM75 °FPassing clouds.6 mph54%30.21 "HgN/A
10:30 AM73 °FPassing clouds.2 mph61%30.21 "HgN/A
10:00 AM73 °FPassing clouds.1 mph57%30.21 "HgN/A
9:30 AM70 °FPassing clouds.1 mph64%30.21 "HgN/A
9:00 AM66 °FPassing clouds.2 mph78%30.21 "HgN/A
8:30 AM63 °FPassing clouds.3 mph83%30.21 "HgN/A
8:00 AM59 °FPassing clouds.2 mph94%30.21 "HgN/A
7:30 AM55 °FPassing clouds.1 mph94%30.21 "HgN/A
7:00 AM54 °FPassing clouds.No wind94%30.21 "HgN/A
6:30 AM52 °FPassing clouds.1 mph100%30.21 "HgN/A
6:00 AM54 °FFog.2 mph94%30.21 "HgN/A
5:30 AM54 °FPassing clouds.2 mph94%30.21 "HgN/A
5:00 AM54 °FPassing clouds.2 mph94%30.21 "HgN/A
4:30 AM54 °FPassing clouds.No wind94%30.21 "HgN/A
4:00 AM55 °FPassing clouds.No wind94%30.21 "HgN/A
3:30 AM54 °FPassing clouds.No wind94%30.21 "HgN/A
3:00 AM55 °FPassing clouds.No wind94%30.24 "HgN/A
2:30 AM57 °FPassing clouds.No wind94%30.24 "HgN/A
2:00 AM57 °FPassing clouds.No wind94%30.24 "HgN/A
1:30 AM59 °FPassing clouds.2 mph94%30.24 "HgN/A
1:00 AM61 °FPassing clouds.2 mph88%30.24 "HgN/A
12:30 AM61 °FPassing clouds.3 mph88%30.24 "HgN/A
12:00 AM61 °FPassing clouds.1 mph88%30.24 "HgN/A
Weather by CustomWeather, © 2016

See weather overviewHow to use our weather pages